星链-4453 (STARLINK-4453 )

导读 | 豆包AI

STARLINK-4453是美国于2022年8月12日发射的星链卫星,属于SpaceX星链互联网星座项目,旨在为全球提供高速低延迟宽带互联网服务。它部署在近地轨道,是星链星座规模化组网的组成部分之一,服务覆盖偏远地区等网络基础设施薄弱区域,支撑全球互联接入的目标实现。

基本信息
目录编号:
53497
目录名称:
STARLINK-4453
国际标识:
2022-099AJ
轨道中心:
EARTH
卫星名称:
星链-4453
卫星全名:
星链-4453 (STARLINK-4453 )
卫星状态:
在轨 (已飞行1311 天)
发射日期:
2022-08-12 UTC
国别 :
美国 (US)
星等 :
--
轨道信息
数据来源 国际轨道数据
星历时间: 2026-03-15T05:02:15+0800
9小时前
查看轨道信息
半长轴: 6941.128km
偏心率: 0.000237
轨道倾角: 97.601°
近地点辐角 92.054°
升交点赤经 195.302°
平近点角 268.096°
近地点: 561.345km
远地点: 564.637km
周期: 95.919分钟
每日圈数: 15.012663
详细信息
固有亮度:
5
最大亮度:
2.5
卫星平台:
Starlink v1.5
覆盖范围:
全球
运营商:
太空探索技术公司
运营商所在国:
美国
制造商(研发单位):
太空探索技术公司
制造商所在国:
美国
使用方式:
暂无
卫星简介
星链(Starlink)计划是由太空探索技术公司(SpaceX)提出的一个巨型低轨卫星互联网星座项目,计划在2019年至2024年间在太空搭建由约1.2万颗卫星组成的“星链”网络,其中1584颗将部署在地球上空550千米处的近地轨道,并从2020年开始工作。该卫星仍在工作。
2D轨道图
3D轨道图
轨道高度分析图
轨道倾角分析图
轨道综合分析图
查看轨道综合分析图